Dewpoint
59 58 58 57 56 56 56 56 57 58 59 58 58 59 59 57 56 57 58 56 60 60 60 60 60 60 61 61 61 61 62 64 64
58 57 56 56 56 56 56 56 57 57 57 57 58 59 58 53 55 56 56 58 59 59 60 60 60 60 60 60 61 61 60 61 62
56 56 55 56 56 55 54 55 55 56 57 58 59 58 57 55 56 57 57 62 60 62 63 63 63 61 60 60 59 60 61 61 61
55 55 55 54 55 53 54 54 54 55 55 59 60 60 60 55 57 58 58 63 64 64 64 63 64 64 63 61 61 61 61 62 62
54 55 54 55 55 54 54 53 53 54 54 56 59 59 58 55 57 59 62 63 63 62 62 62 63 64 64 64 64 64 63 63 63
50 55 55 54 54 54 53 53 52 50 51 53 57 57 55 56 57 59 62 62 62 61 60 59 61 63 63 62 62 62 63 63 62
46 50 51 52 51 52 52 52 49 45 42 42 52 54 55 56 57 58 60 59 61 60 57 59 59 61 62 61 60 60 61 61 61
42 43 43 43 45 42 43 42 42 41 44 44 48 54 54 55 55 57 58 58 57 56 57 56 57 57 59 58 58 57 59 60 59
41 42 42 42 42 41 42 42 42 45 47 47 48 52 53 53 53 55 58 56 56 56 55 55 56 56 56 57 56 57 57 57 57
41 41 41 41 41 41 41 42 42 44 48 48 47 52 52 51 51 52 57 54 53 54 55 56 56 56 54 54 55 55 54 53 54
41 41 41 41 41 41 42 41 42 43 49 51 50 51 52 51 49 48 48 52 51 51 53 54 54 55 55 54 52 53 53 53 53
40 40 40 40 40 41 41 41 40 42 46 49 50 50 47 46 46 45 44 45 48 52 52 53 53 53 53 53 52 52 51 51 52
40 40 39 39 40 40 41 41 39 39 42 44 49 49 47 46 45 44 44 44 42 48 51 52 52 51 52 52 52 51 49 48 50
39 40 39 39 38 40 40 41 40 39 39 41 48 48 48 48 47 46 45 43 41 44 49 50 50 49 49 49 49 49 48 47 48
39 39 39 38 37 37 38 39 40 39 39 40 42 45 48 48 48 48 48 44 41 41 40 46 46 49 49 48 48 47 47 47 47
38 38 38 37 36 36 37 38 36 38 39 36 37 39 44 46 43 45 46 41 39 35 38 42 43 43 45 48 48 47 47 47 46
37 37 37 36 36 35 36 36 34 35 38 35 35 31 32 37 38 43 41 35 35 35 36 36 35 36 39 43 48 48 47 47 47
38 37 37 36 36 36 36 36 35 32 35 36 34 29 28 35 35 37 37 36 34 34 35 35 34 34 38 40 42 45 47 47 48
39 38 37 37 36 35 35 35 35 33 33 34 35 37 37 33 30 35 37 35 32 32 33 34 33 33 35 37 41 45 46 48 48
39 37 36 36 36 35 33 33 33 35 33 34 33 32 34 35 34 32 31 31 31 32 33 33 32 32 33 36 42 45 45 46 47
Lifted_Index
7 7 7 8 8 8 8 8 8 8 8 8 8 8 8 9 7 6 5 5 4 4 4 4 4 4 4 3 3 3 3 2 2
7 7 8 8 8 8 8 8 8 8 8 8 8 8 9 9 8 6 5 5 4 4 4 3 3 3 3 4 4 3 3 3 2
8 8 8 8 8 8 8 8 8 8 8 8 7 8 9 8 7 6 5 4 3 3 3 2 2 3 3 3 3 3 3 3 3
8 8 8 8 8 8 9 9 9 9 9 8 7 7 8 8 6 5 4 3 3 2 2 2 2 2 2 3 3 3 2 2 2
9 9 8 8 8 9 9 10 10 10 10 9 8 8 8 7 6 4 3 3 3 3 3 3 2 2 2 2 2 2 2 2 2
11 10 10 9 9 10 10 10 11 12 12 11 9 8 8 7 6 5 4 3 3 4 4 4 3 3 2 2 3 3 3 3 3
12 12 12 11 12 11 11 12 13 13 13 12 10 9 8 8 7 6 5 5 5 5 5 5 5 4 3 4 4 4 4 4 4
13 13 13 13 13 13 13 13 13 12 12 12 10 9 8 9 8 8 7 6 6 6 6 6 6 5 5 5 5 6 5 5 5
13 13 13 13 13 13 13 13 12 11 11 11 10 9 9 9 9 9 8 8 8 7 7 7 7 7 6 6 7 7 7 7 6
13 13 13 13 13 13 14 13 12 11 10 10 10 9 9 9 10 10 10 10 9 9 8 8 8 7 7 7 8 8 8 8 8
13 13 13 13 14 14 14 13 12 11 10 10 9 9 9 9 10 10 10 11 11 10 9 9 8 8 8 8 8 9 9 9 9
13 13 13 13 14 14 13 13 12 11 10 9 9 8 8 9 10 10 11 12 12 11 10 10 9 9 9 9 9 9 10 10 10
13 13 13 13 13 13 13 13 12 12 10 9 9 8 9 9 10 10 11 12 13 13 11 11 10 10 10 10 10 10 11 11 11
13 13 13 13 13 13 13 13 13 12 11 10 9 9 9 9 10 10 11 12 13 14 13 12 12 11 11 11 11 11 11 12 12
14 13 13 13 13 13 13 13 13 12 12 11 10 10 9 9 9 10 11 12 13 14 14 13 13 12 12 12 12 12 12 12 12
14 14 13 13 13 13 13 13 13 12 12 12 11 10 10 9 10 10 11 12 13 13 14 14 13 13 13 13 12 12 12 12 12
14 14 13 13 13 13 13 13 13 12 12 12 11 11 10 10 11 11 11 12 13 13 14 14 14 14 14 14 13 13 13 13 12
14 14 14 13 13 13 13 13 13 12 12 12 12 11 11 11 11 11 12 12 13 13 14 14 14 14 14 14 14 14 14 13 12
14 14 14 14 13 13 13 13 13 12 12 12 12 12 11 11 11 11 12 12 13 13 13 14 14 14 15 15 15 14 13 12 12
14 14 14 14 13 13 13 13 13 12 12 12 12 12 12 12 11 10 11 12 13 13 13 13 14 14 15 16 15 14 13 12 12